Regional Weather Roundup
Issued by NWS

Home | Current Version | Previous Version | Text Only | Print | Product List | Glossary Off
Versions: 1 2 3 4 5 6 7 8 9 10 11 12 13 14 15 16 17 18 19 20 21 22 23 24 25 26 27 28 29 30 31 32 33 34 35 36 37 38 39 40 41 42 43 44 45 46 47 48 49 50

000
ASUS43 KBIS 290010
RWRND

NORTH DAKOTA REGIONAL WEATHER ROUNDUP
NATIONAL WEATHER SERVICE BISMARCK ND
700 PM CDT SAT MAY 28 2016

NOTE: "FAIR" INDICATES FEW OR NO CLOUDS BELOW 12,000 FEET WITH NO
SIGNIFICANT WEATHER AND/OR OBSTRUCTIONS TO VISIBILITY.


NDZ001>003-009>011-017-290100-
NORTHWEST NORTH DAKOTA

CITY           SKY/WX    TMP DP  RH WIND       PRES   REMARKS
WILLISTON      LGT RAIN  61  56  83 W3        29.92R
6HR MIN TEMP:  58; 6HR MAX TEMP:  71; 6HR PCP:  0.09;

MINOT          MOSUNNY   69  52  54 NW3       29.88R
MINOT AFB      CLOUDY    66  53  62 VRB5      29.87S
$$

NDZ018>021-031>035-040>046-290100-
SOUTHWEST NORTH DAKOTA

CITY           SKY/WX    TMP DP  RH WIND       PRES   REMARKS
BISMARCK       LGT RAIN  60  57  89 NW15G23   29.91R
6HR MIN TEMP:  61; 6HR MAX TEMP:  72; 6HR PCP:  0.04;

DICKINSON      LGT RAIN  65  50  58 W5        29.89S
GARRISON         N/A     60  53  77 W8        29.90R
6HR MIN TEMP:  60; 6HR MAX TEMP:  69;

HETTINGER ARPT CLOUDY    66  50  56 N7        29.92R
$$

NDZ004>008-012>016-024-026-027-054-290100-
NORTHEAST NORTH DAKOTA

CITY           SKY/WX    TMP DP  RH WIND       PRES   REMARKS
GRAND FORKS    LGT RAIN  64  59  83 E7        29.83R
GRND FRKS AFB  CLOUDY    67  58  72 E7        29.83S
$$

NDZ022-023-025-028>030-036>039-047>053-290100-
SOUTHEAST NORTH DAKOTA

CITY           SKY/WX    TMP DP  RH WIND       PRES   REMARKS
FARGO          CLOUDY    66  58  75 NE12      29.81S
6HR MIN TEMP:  65; 6HR MAX TEMP:  72;

JAMESTOWN      MOSUNNY   70  53  54 NW10      29.84R
$$





USA.gov is the U.S. government's official web portal to all federal, state and local government web resources and services.